[Iaude] MPEC P106: 2020 PG3 [a=19.64,e=0.46,i=19.8,H=11.8]

mpec at marsden.cfa.harvard.edu mpec at marsden.cfa.harvard.edu
Sat Aug 15 18:29:11 EDT 2020


M.P.E.C. 2020-P106                              Issued 2020 August 15, 22:27 UT

     The Minor Planet Electronic Circulars contain information on unusual
         minor planets and routine data on comets.  They are published
    on behalf of Division F of the International Astronomical Union by the
          Minor Planet Center, Smithsonian Astrophysical Observatory,
                          Cambridge, MA 02138, U.S.A.

             Prepared using the Tamkin Foundation Computer Network

                              MPC at CFA.HARVARD.EDU
            URL https://www.minorplanetcenter.net/    ISSN 1523-6714

                                    2020 PG3                                    


Observations:
     K20P03G  C2018 06 21.50888919 33 33.830-21 24 50.86         23.24GVEP106F51
     K20P03G  C2018 06 21.52108119 33 33.691-21 24 51.46         23.25GVEP106F51
     K20P03G  C2018 06 21.53324819 33 33.520-21 24 52.04         22.54GVEP106F51
     K20P03G  C2018 06 21.54541419 33 33.369-21 24 53.00         22.09GVEP106F51
     K20P03G  C2018 07 11.41430819 28 55.281-21 45 44.06         22.42GVEP106F51
     K20P03G  C2018 07 11.42579519 28 55.105-21 45 44.84         22.25GVEP106F51
     K20P03G  C2018 08 05.31668819 23 02.262-22 11 25.81         22.93GVEP106F51
     K20P03G  C2018 08 05.35054519 23 01.796-22 11 27.58         22.26GVEP106F51
     K20P03G  C2019 05 12.57786820 20 55.844-22 11 34.05         22.29GVEP106F51
     K20P03G  C2019 05 12.58627920 20 55.849-22 11 35.16         22.56GVEP106F51
     K20P03G  C2019 05 12.59470120 20 55.874-22 11 35.62         22.95GVEP106F51
     K20P03G  C2019 05 12.60312720 20 55.874-22 11 35.56         22.51GVEP106F51
     K20P03G  C2019 06 03.56985820 19 54.926-22 32 18.52         22.96GVEP106F51
     K20P03G  C2019 06 03.58744820 19 54.824-22 32 19.58         22.24GVEP106F51
     K20P03G  C2019 06 03.59625620 19 54.774-22 32 20.15         23.03GVEP106F51
     K20P03G  C2019 06 12.56554320 18 46.825-22 43 01.19         22.55GVEP106F51
     K20P03G  C2019 06 12.58572220 18 46.644-22 43 02.65         22.21GVEP106F51
     K20P03G  C2019 07 07.46395920 13 56.964-23 16 41.08         22.55GVEP106F51
     K20P03G  C2019 07 07.47637520 13 56.806-23 16 42.22         22.60GVEP106F51
     K20P03G  C2019 07 07.48877420 13 56.628-23 16 43.58         22.68GVEP106F51
     K20P03G  C2019 07 07.50117620 13 56.440-23 16 44.56         22.73GVEP106F51
     K20P03G  C2019 07 26.41310120 09 19.175-23 43 00.21         22.16GVEP106F51
     K20P03G  C2019 07 26.42513020 09 19.022-23 43 00.88         22.18GVEP106F51
     K20P03G  C2019 07 26.43718520 09 18.838-23 43 01.93         22.36GVEP106F51
     K20P03G  C2019 08 20.30175520 03 29.011-24 12 54.10         22.06GVEP106F51
     K20P03G  C2020 06 27.53281921 05 03.505-23 51 11.66         22.19GVEP106F51
     K20P03G  C2020 06 27.54440921 05 03.397-23 51 12.71         22.41GVEP106F51
     K20P03G  C2020 06 27.55601021 05 03.289-23 51 13.73         22.23GVEP106F51
     K20P03G  C2020 07 13.57763521 01 58.219-24 19 23.02         22.31GVEP106F51
     K20P03G  C2020 07 13.58891421 01 58.072-24 19 24.36         21.87GVEP106F51
     K20P03G  C2020 07 22.42258120 59 55.831-24 35 03.69         21.72GVEP106F51
     K20P03G  C2020 07 22.43322520 59 55.667-24 35 04.75         22.22GVEP106F51
     K20P03G  C2020 07 22.44384720 59 55.516-24 35 05.91         22.01GVEP106F51
     K20P03G  C2020 07 22.45447820 59 55.347-24 35 07.23         21.75GVEP106F51
     K20P03G  C2020 07 23.43011320 59 41.254-24 36 49.58         22.00GVEP106F51
     K20P03G  C2020 07 23.44106520 59 41.092-24 36 50.67         21.87GVEP106F51
     K20P03G  C2020 07 23.45202920 59 40.926-24 36 51.77         22.20GVEP106F51
     K20P03G  C2020 07 23.46297720 59 40.769-24 36 52.87         22.07GVEP106F51
     K20P03G* C2020 08 14.31741120 54 13.882-25 12 16.87         22.56wUEP106F51
     K20P03G  C2020 08 14.32799320 54 13.729-25 12 17.86         22.56wUEP106F51
     K20P03G  C2020 08 14.33857420 54 13.567-25 12 18.68         22.04wUEP106F51
     K20P03G  C2020 08 14.34914420 54 13.397-25 12 19.74         22.41wUEP106F51
     K20P03G ^C2020 08 15.38172220 53 58.186-25 13 48.90         22.50GVEP106568
     K20P03G ^C2020 08 15.38290020 53 58.155-25 13 48.85         22.00GVEP106568
     K20P03G ^C2020 08 15.39357620 53 57.997-25 13 49.71         21.93GVEP106568
     K20P03G ^C2020 08 15.39475720 53 57.975-25 13 49.87         22.15GVEP106568

Observer details:
568 Mauna Kea.  Observers R. Wainscoat, C. Wipper, T. Burdullis.  Measurers R.
    Weryk, R. Wainscoat.  3.6-m Canada-France-Hawaii Telescope + CCD.
F51 Pan-STARRS 1, Haleakala.  Observers J. Bulger, K. Chambers, T. Lowe, A.
    Schultz, M. Willman.  Measurers S. Chastel, M. Huber, Y. Ramanjooloo, R.
    Wainscoat, R. Weryk, K. Chambers, T. de Boer, L. Denneau, J. Fairlamb, H.
    Flewelling, C.-C. Lin, E. Magnier.  1.8-m Ritchey-Chretien + CCD.

Orbital elements:
2020 PG3
Epoch 2020 May 31.0 TT = JDT 2459000.5                  Veres
M 345.49812              (2000.0)            P               Q
n   0.01132673     Peri.  240.33092     +0.93975102     +0.12871484
a  19.6366026      Node   110.69094     -0.04280360     +0.96342294
e   0.4628058      Incl.   19.78785     -0.33916939     +0.23505050
P  87.02           H   11.8           G   0.15           U   1
Residuals in seconds of arc
180621 F51  0.2-  0.1-    190612 F51  0.2+  0.0     200722 F51  0.0   0.0
180621 F51  0.1+  0.0     190707 F51  0.2-  0.4+    200722 F51  0.1-  0.2-
180621 F51  0.0   0.2+    190707 F51  0.0   0.3+    200723 F51  0.0   0.1-
180621 F51  0.1+  0.0     190707 F51  0.0   0.0     200723 F51  0.0   0.1-
180711 F51  0.1+  0.1+    190707 F51  0.2-  0.1+    200723 F51  0.0   0.0
180711 F51  0.1+  0.0     190726 F51  0.3-  0.2-    200723 F51  0.1+  0.0
180805 F51  0.0   0.2-    190726 F51  0.1+  0.1+    200814 F51  0.1-  0.1+
180805 F51  0.2-  0.0     190726 F51  0.1+  0.0     200814 F51  0.0   0.0
190512 F51  0.2-  0.5+    190820 F51  0.3+  0.2-    200814 F51  0.0   0.1+
190512 F51  0.2-  0.3-    200627 F51  0.1-  0.1-    200814 F51  0.1-  0.0
190512 F51  0.1+  0.4-    200627 F51  0.0   0.0     200815 568  0.2+  0.1-
190512 F51  0.0   0.1+    200627 F51  0.1+  0.2+    200815 568  0.0   0.0
190603 F51  0.1-  0.1-    200713 F51  0.1+  0.1+    200815 568  0.0   0.1+
190603 F51  0.1+  0.0     200713 F51  0.1+  0.1-    200815 568  0.0   0.0
190603 F51  0.2+  0.0     200722 F51  0.0   0.0
190612 F51  0.2+  0.1-    200722 F51  0.1-  0.0

Ephemeris:
2020 PG3                 a,e,i = 19.64, 0.46, 20                 q = 10.5487
Date    TT    R. A. (2000) Decl.     Delta      r    Elong.  Phase     V
2020 07 16    21 01 25.9 -24 23 41  10.4535 11.4219   161.5     1.6    22.4
...
2020 07 31    20 57 49.2 -24 49 47  10.3952 11.4022   172.4     0.7    22.3
...
2020 08 08    20 55 48.4 -25 02 45  10.3910 11.3917   170.3     0.9    22.3
...
2020 08 14    20 54 18.6 -25 11 49  10.4001 11.3839   165.5     1.3    22.3
2020 08 15    20 54 03.8 -25 13 15  10.4027 11.3826   164.7     1.3    22.4
2020 08 16    20 53 49.1 -25 14 41  10.4055 11.3813   163.8     1.4    22.4
...
2020 08 22    20 52 23.1 -25 22 47  10.4285 11.3735   158.1     1.9    22.4
...
2020 08 30    20 50 36.4 -25 32 17  10.4746 11.3632   150.4     2.5    22.5
...
2020 09 14    20 47 52.5 -25 45 38  10.6041 11.3440   135.5     3.6    22.5

M. P. C. Staff               (C) Copyright 2020 MPC           M.P.E.C. 2020-P106




More information about the Iaude mailing list